DELTA 1 DEB, 10875

Orbit data source: Space-Track

DELTA 1 DEB, 10875 is space debris in SSO originally from a launch on Thu, 29 Jul 1976 UTC launched from the Air Force Western Test Range (AFWTR). Debris objects in space refer to the collection of defunct objects orbiting the Earth. Examples of debris include non-operational satellites, rocket bodies, and fragments generated from explosions, collisions, or faulty payload assembly.

Loading next visibility...
Identifier
10875, 1976-077DD
Orbit
SSO
Country
Flag of USUS
Related business
Manufacturer
Unknown
Mission
Spacecraft
Bus & Motor
Unknown
Mass
Unknown
Launch date (UTC)
1976-07-29 (50 years ago)
Launch vehicle
Unknown
Launch site
Air Force Western Test Range (AFWTR)
Object type
Payload
Rocket body
Debris
Shape & HBR
Unknown shape, 0.1 m
Radar Cross Section
Medium (>0.1 m² and <1 m²)

Expand to show TLE details & history
Last TLE update: 3 days ago

TLE from 3 days ago
0 DELTA 1 DEB
1 10875U 76077DD  26170.83849933 -.00000026  00000-0  13370-3 0  9997
2 10875 101.9793 125.5875 0031942 226.0181 161.2362 12.47078579269452
Epoch: 2026-06-19T20:07Z
TLE epoch observation values (Epoch: 2026-06-19T20:07:26.342Z)
Latitude
26.76354°
Longitude
-90.44684°
Altitude
1,503.462 km
Speed
7.104 km/s
True Right ascension
07h 57m 53s
True Declination
26° 38' 19"
Sunlit
Object was in daylight at epoch
Visualization orbit readout
Latitude
Unknown
Longitude
Unknown
Altitude
Unknown
Speed
Unknown
Apparent Right ascension
Unknown
Apparent Declination
Unknown
Sunlit
N/A
Visualization observer readout
Local Sidereal Time
11:35:01
Azimuth
Unknown
Elevation
Unknown
Doppler factor
Unknown
Orbital elements
Apogee altitude
1,499.385 km
Perigee altitude
1,449.22 km
Semi-major axis
7,852.44 km
Eccentricity
0.00319
Inclination
101.9793°
RAAN
125.5875°
Arg. of periapsis
226.0181°
True anomaly
161.3535°
Mean anomaly
161.2362°
Eccentric anomaly
161.29489°
Mean motion
3.11915 °/min
Orbital period
115.42 mins
BSTAR
0.0001337
Loading maneuver chart data...
Computing Atmospheric mass density...
Loading historical data...
Loading historical data...
Loading historical data...
Loading historical data...
Loading historical data...
Loading historical data...
Loading historical data...

Documentation

Showing up to 5 results
|